{"data":{"norad_id":60035,"epoch":"2026-09-21T10:56:46.386816Z","epoch_age_seconds":95034,"freshness":"FRESH","line1":"1 60035U 24111V   26264.45609244 -.00001532  00000+0 -34230-4 0  9995","line2":"2 60035  53.1587 245.0719 0001340 102.5681 257.5471 15.34376282128951","mean_motion":15.34376282,"eccentricity":0.000134,"inclination_deg":53.1587,"raan_deg":245.0719,"arg_perigee_deg":102.5681,"mean_anomaly_deg":257.5471,"bstar":-3.423e-5,"rev_number":12895,"period_min":93.849208756213,"perigee_km":461.8570539709,"apogee_km":463.69041804815,"semimajor_km":6840.9107360095,"source":"CELESTRAK","updated_at":"2026-09-22T09:00:49.140912Z"}}